User: anonymous   Login
Location: Smithers
(54.7670°N, 127.1670°W)
Time: 11:18:36
(UTC-07:00)
Language:

ERBS - Orbit

View from above orbital plane
View from above orbital plane
View from above satellite
View from above satellite

Ground track
Ground track

The orbit data is extracted from the following two-line orbital elements,

1 15354U 84108B   15116.78904361  .00011534  00000-0  34282-3 0  9997
2 15354 057.0110 248.7628 0018797 069.6397 290.6671 15.35110728677669
Epoch (UTC): 26 April 2015 18:56:13
Eccentricity: 0.0018797
inclination: 57.0110°
perigee height: 448 km
apogee height: 473 km
right ascension of ascending node: 248.7628°
argument of perigee: 69.6397°
revolutions per day: 15.35110728
mean anomaly at epoch: 290.6671°
orbit number at epoch: 67766

The dashed part of the orbit path shows where the satellite is in the earth's shadow,  

DLR